<?xml version="1.0"?>
<gpx xmlns="http://www.topografix.com/GPX/1/1" xmlns:xsi="http://www.w3.org/2001/XMLSchema-instance" version="1.1" creator="GPX RubyGem 1.0.0 -- http://dougfales.github.io/gpx/" xsi:schemaLocation="http://www.topografix.com/GPX/1/1 http://www.topografix.com/GPX/1/1/gpx.xsd">
  <metadata>
    <name/>
    <time>2026-05-09T06:21:58+00:00</time>
    <bound minlat="90.0" minlon="180.0" maxlat="-90.0" maxlon="-180.0"/>
  </metadata>
  <trk>
    <name/>
    <trkseg>
      <trkpt lat="50.324359" lon="11.930373">
        <time>1970-01-01T00:00:00+00:00</time>
        <ele>502.0</ele>
      </trkpt>
      <trkpt lat="50.324416" lon="11.930322">
        <time>1970-01-01T00:00:00+00:00</time>
        <ele>501.0</ele>
      </trkpt>
      <trkpt lat="50.324558" lon="11.930008">
        <time>1970-01-01T00:00:00+00:00</time>
        <ele>499.0</ele>
      </trkpt>
      <trkpt lat="50.324819" lon="11.930876">
        <time>1970-01-01T00:00:00+00:00</time>
        <ele>498.0</ele>
      </trkpt>
      <trkpt lat="50.324969" lon="11.930885">
        <time>1970-01-01T00:00:00+00:00</time>
        <ele>499.0</ele>
      </trkpt>
      <trkpt lat="50.325087" lon="11.930816">
        <time>1970-01-01T00:00:00+00:00</time>
        <ele>498.0</ele>
      </trkpt>
      <trkpt lat="50.325261" lon="11.931042">
        <time>1970-01-01T00:00:00+00:00</time>
        <ele>499.0</ele>
      </trkpt>
      <trkpt lat="50.325343" lon="11.931257">
        <time>1970-01-01T00:00:00+00:00</time>
        <ele>500.0</ele>
      </trkpt>
      <trkpt lat="50.325424" lon="11.931545">
        <time>1970-01-01T00:00:00+00:00</time>
        <ele>502.0</ele>
      </trkpt>
      <trkpt lat="50.325528" lon="11.931643">
        <time>1970-01-01T00:00:00+00:00</time>
        <ele>501.0</ele>
      </trkpt>
      <trkpt lat="50.325817" lon="11.931702">
        <time>1970-01-01T00:00:00+00:00</time>
        <ele>497.0</ele>
      </trkpt>
      <trkpt lat="50.3259" lon="11.931582">
        <time>1970-01-01T00:00:00+00:00</time>
        <ele>495.0</ele>
      </trkpt>
      <trkpt lat="50.32614" lon="11.931232">
        <time>1970-01-01T00:00:00+00:00</time>
        <ele>491.0</ele>
      </trkpt>
      <trkpt lat="50.32626" lon="11.930952">
        <time>1970-01-01T00:00:00+00:00</time>
        <ele>489.0</ele>
      </trkpt>
      <trkpt lat="50.326345" lon="11.930676">
        <time>1970-01-01T00:00:00+00:00</time>
        <ele>487.0</ele>
      </trkpt>
      <trkpt lat="50.326454" lon="11.930276">
        <time>1970-01-01T00:00:00+00:00</time>
        <ele>488.0</ele>
      </trkpt>
      <trkpt lat="50.326555" lon="11.930126">
        <time>1970-01-01T00:00:00+00:00</time>
        <ele>489.0</ele>
      </trkpt>
      <trkpt lat="50.326776" lon="11.929935">
        <time>1970-01-01T00:00:00+00:00</time>
        <ele>493.0</ele>
      </trkpt>
      <trkpt lat="50.327028" lon="11.930614">
        <time>1970-01-01T00:00:00+00:00</time>
        <ele>492.0</ele>
      </trkpt>
      <trkpt lat="50.327219" lon="11.931073">
        <time>1970-01-01T00:00:00+00:00</time>
        <ele>495.0</ele>
      </trkpt>
      <trkpt lat="50.327581" lon="11.931791">
        <time>1970-01-01T00:00:00+00:00</time>
        <ele>496.0</ele>
      </trkpt>
      <trkpt lat="50.327803" lon="11.932109">
        <time>1970-01-01T00:00:00+00:00</time>
        <ele>501.0</ele>
      </trkpt>
      <trkpt lat="50.328072" lon="11.932714">
        <time>1970-01-01T00:00:00+00:00</time>
        <ele>506.0</ele>
      </trkpt>
      <trkpt lat="50.328273" lon="11.93304">
        <time>1970-01-01T00:00:00+00:00</time>
        <ele>506.0</ele>
      </trkpt>
      <trkpt lat="50.328372" lon="11.933115">
        <time>1970-01-01T00:00:00+00:00</time>
        <ele>507.0</ele>
      </trkpt>
      <trkpt lat="50.328416" lon="11.933166">
        <time>1970-01-01T00:00:00+00:00</time>
        <ele>507.0</ele>
      </trkpt>
      <trkpt lat="50.328416" lon="11.933166">
        <time>1970-01-01T00:00:00+00:00</time>
        <ele>507.0</ele>
      </trkpt>
      <trkpt lat="50.328372" lon="11.933115">
        <time>1970-01-01T00:00:00+00:00</time>
        <ele>507.0</ele>
      </trkpt>
      <trkpt lat="50.328273" lon="11.93304">
        <time>1970-01-01T00:00:00+00:00</time>
        <ele>506.0</ele>
      </trkpt>
      <trkpt lat="50.328072" lon="11.932714">
        <time>1970-01-01T00:00:00+00:00</time>
        <ele>506.0</ele>
      </trkpt>
      <trkpt lat="50.327803" lon="11.932109">
        <time>1970-01-01T00:00:00+00:00</time>
        <ele>501.0</ele>
      </trkpt>
      <trkpt lat="50.327581" lon="11.931791">
        <time>1970-01-01T00:00:00+00:00</time>
        <ele>496.0</ele>
      </trkpt>
      <trkpt lat="50.327219" lon="11.931073">
        <time>1970-01-01T00:00:00+00:00</time>
        <ele>495.0</ele>
      </trkpt>
      <trkpt lat="50.327028" lon="11.930614">
        <time>1970-01-01T00:00:00+00:00</time>
        <ele>492.0</ele>
      </trkpt>
      <trkpt lat="50.326776" lon="11.929935">
        <time>1970-01-01T00:00:00+00:00</time>
        <ele>493.0</ele>
      </trkpt>
      <trkpt lat="50.326555" lon="11.930126">
        <time>1970-01-01T00:00:00+00:00</time>
        <ele>489.0</ele>
      </trkpt>
      <trkpt lat="50.326435" lon="11.930121">
        <time>1970-01-01T00:00:00+00:00</time>
        <ele>487.0</ele>
      </trkpt>
      <trkpt lat="50.326319" lon="11.930069">
        <time>1970-01-01T00:00:00+00:00</time>
        <ele>486.0</ele>
      </trkpt>
      <trkpt lat="50.325893" lon="11.929611">
        <time>1970-01-01T00:00:00+00:00</time>
        <ele>483.0</ele>
      </trkpt>
      <trkpt lat="50.32572" lon="11.929477">
        <time>1970-01-01T00:00:00+00:00</time>
        <ele>482.0</ele>
      </trkpt>
      <trkpt lat="50.325357" lon="11.929383">
        <time>1970-01-01T00:00:00+00:00</time>
        <ele>483.0</ele>
      </trkpt>
      <trkpt lat="50.325061" lon="11.927993">
        <time>1970-01-01T00:00:00+00:00</time>
        <ele>481.0</ele>
      </trkpt>
      <trkpt lat="50.324646" lon="11.928259">
        <time>1970-01-01T00:00:00+00:00</time>
        <ele>492.0</ele>
      </trkpt>
      <trkpt lat="50.324419" lon="11.928443">
        <time>1970-01-01T00:00:00+00:00</time>
        <ele>497.0</ele>
      </trkpt>
      <trkpt lat="50.324251" lon="11.928415">
        <time>1970-01-01T00:00:00+00:00</time>
        <ele>498.0</ele>
      </trkpt>
      <trkpt lat="50.324246" lon="11.928558">
        <time>1970-01-01T00:00:00+00:00</time>
        <ele>498.0</ele>
      </trkpt>
      <trkpt lat="50.324277" lon="11.928901">
        <time>1970-01-01T00:00:00+00:00</time>
        <ele>500.0</ele>
      </trkpt>
      <trkpt lat="50.324324" lon="11.929154">
        <time>1970-01-01T00:00:00+00:00</time>
        <ele>502.0</ele>
      </trkpt>
      <trkpt lat="50.324387" lon="11.929382">
        <time>1970-01-01T00:00:00+00:00</time>
        <ele>502.0</ele>
      </trkpt>
      <trkpt lat="50.32446" lon="11.929663">
        <time>1970-01-01T00:00:00+00:00</time>
        <ele>501.0</ele>
      </trkpt>
      <trkpt lat="50.324486" lon="11.929761">
        <time>1970-01-01T00:00:00+00:00</time>
        <ele>501.0</ele>
      </trkpt>
      <trkpt lat="50.324558" lon="11.930008">
        <time>1970-01-01T00:00:00+00:00</time>
        <ele>499.0</ele>
      </trkpt>
      <trkpt lat="50.324416" lon="11.930322">
        <time>1970-01-01T00:00:00+00:00</time>
        <ele>501.0</ele>
      </trkpt>
      <trkpt lat="50.324359" lon="11.930373">
        <time>1970-01-01T00:00:00+00:00</time>
        <ele>502.0</ele>
      </trkpt>
    </trkseg>
  </trk>
</gpx>
